sat.trackr.live / text

‹ back to catalog

STARLINK-34892

NORAD 65350 · 2025-189AD

PAYLOAD ACTIVE UNKNOWN

§ Identity

Operator
Country
US
Launch date
2025-08-27
Launch site
AFETR
Launch vehicle
Mass (kg)
RCS (m²)

Purposes: comms

External: N2YO · Heavens-Above · Gunter

§ Orbital elements

Epoch: 2026-05-24T21:57:14.095008Z

Period
94.01 min
Inclination
53.1588°
Eccentricity
0.0001317
Mean motion
15.31706738 rev/d
Perigee alt
469.8 km
Apogee alt
471.6 km
Semi-major
6,848.9 km
B*
5.9315e-4
RAAN
212.2236°
Arg perigee
78.2409°
Mean anomaly
281.8740°
Rev number
4,273

§ Raw data

STARLINK-348921 65350U 25189AD  26144.91474647  .00018090  00000+0  59315-3 0  99962 65350  53.1588 212.2236 0001317  78.2409 281.8740 15.31706738 42738

JSON: /api/v1/satellites/65350 · /tle

For live sub-satellite position, see the globe view (requires WebGL).

§ Visibility from observer

Set your observer location to see the next 7 days of passes ≥ 10°. The values pass through the URL so the page stays shareable.

No JS? Fill the form by hand. The geolocation button needs JavaScript.